Date String (YYYY-MM-DD hh:mm:ss) UTC,Instrument flags,Ambient pressure (hPa),Sample flow (lpm),Bypass flow (lpm),Sample temperature (°C),Ambient temperature (°C),ASC tube jacket temperature (°C),LED temperature (°C),Box temperature (°C),Sample RH (%),Span deviation,Mass concentration (μg/m³),Mass concentration (μg/m³),Mass concentration (μg/m³)
DateTimeUTC,F1_M11,P_M11,Q1_M11,Q2_M11,T1_M11,T2_M11,T3_M11,T4_M11,T5_M11,U1_M11,ZSPAN_M11,X0_M11,X2_M11,X1_M11
2022-10-16 21:00:00,,0833.1,5.00,0.00,28.7,27.2,00.0,37.4,30.5,15.3,-000.6,0015.36,0007.92,0007.36
2022-10-16 21:01:00,,0833.1,5.00,0.00,28.7,27.2,00.0,37.5,30.5,15.4,-000.8,0015.36,0007.94,0007.38
2022-10-16 21:02:00,,0833.1,5.00,0.00,28.7,27.3,00.0,37.5,30.5,15.4,-001.1,0015.55,0007.94,0007.36
2022-10-16 21:03:00,,0833.1,5.00,0.00,28.7,27.3,00.0,37.5,30.5,15.3,-001.0,0015.55,0007.96,0007.37
2022-10-16 21:04:00,,0833.0,5.00,0.00,28.7,27.4,00.0,37.5,30.6,15.4,-000.7,0015.39,0008.00,0007.40
2022-10-16 21:05:00,,0833.1,5.00,0.00,28.7,27.4,00.0,37.5,30.6,15.3,-000.3,0015.12,0008.05,0007.43
2022-10-16 21:06:00,,0833.0,5.00,0.00,28.7,27.5,00.0,37.5,30.6,15.3,-000.5,0015.38,0008.09,0007.44
2022-10-16 21:07:00,,0833.0,5.00,0.00,28.8,27.6,00.0,37.5,30.6,15.3,-000.9,0015.11,0008.06,0007.45
2022-10-16 21:08:00,,0833.1,5.00,0.00,28.8,27.6,00.0,37.5,30.7,15.3,-000.6,0014.68,0008.02,0007.44
2022-10-16 21:09:00,,0833.0,5.00,0.00,28.8,27.7,00.0,37.5,30.7,15.3,-000.2,0012.88,0008.03,0007.44
2022-10-16 21:10:00,,0833.1,4.99,0.00,28.8,27.7,00.0,37.5,30.7,15.4,0000.2,0011.81,0008.03,0007.43
2022-10-16 21:11:00,,0833.0,4.99,0.00,28.9,27.8,00.0,37.6,30.8,15.6,0000.5,0011.69,0008.00,0007.41
2022-10-16 21:12:00,,0833.0,5.01,0.00,28.9,27.8,00.0,37.6,30.8,15.5,0000.4,0012.18,0007.95,0007.37
2022-10-16 21:13:00,,0833.0,5.00,0.00,28.9,27.8,00.0,37.6,30.8,15.3,0000.9,0012.26,0007.90,0007.34
2022-10-16 21:14:00,,0833.0,5.00,0.00,28.9,27.9,00.0,37.6,30.8,15.3,0000.6,0012.11,0007.85,0007.32
2022-10-16 21:15:00,,0833.0,4.98,0.00,28.9,27.9,00.0,37.6,30.9,15.1,0000.7,0012.27,0007.79,0007.29
2022-10-16 21:16:00,,0833.0,5.00,0.00,29.0,27.8,00.0,37.6,30.9,15.1,0000.6,0012.27,0007.76,0007.26
2022-10-16 21:17:00,,0833.0,5.00,0.00,29.0,27.8,00.0,37.6,30.9,15.2,0001.0,0012.09,0007.71,0007.25
2022-10-16 21:18:00,,0833.0,5.00,0.00,29.0,27.8,00.0,37.7,30.9,15.3,0000.9,0012.27,0007.69,0007.22
2022-10-16 21:19:00,,0833.0,5.01,0.00,29.0,27.9,00.0,37.7,30.9,15.4,0000.2,0012.24,0007.70,0007.22
2022-10-16 21:20:00,,0833.1,5.00,0.00,29.0,27.9,00.0,37.7,30.9,15.3,0000.0,0012.46,0007.67,0007.19
2022-10-16 21:21:00,,0833.1,5.00,0.00,29.0,27.9,00.0,37.7,30.9,15.1,0000.0,0013.10,0007.69,0007.19
2022-10-16 21:22:00,,0833.0,5.00,0.00,29.1,27.9,00.0,37.7,30.9,15.1,0000.0,0013.29,0007.68,0007.20
2022-10-16 21:23:00,,0833.0,5.00,0.00,29.1,27.9,00.0,37.8,30.9,15.1,0000.0,0012.68,0007.69,0007.23
2022-10-16 21:24:00,,0833.0,5.00,0.00,29.1,27.8,00.0,37.8,30.9,15.0,0000.0,0012.54,0007.71,0007.25
2022-10-16 21:25:00,,0833.1,4.99,0.00,29.1,27.9,00.0,37.8,31.0,15.0,0000.2,0012.76,0007.76,0007.27
2022-10-16 21:26:00,,0833.0,5.00,0.00,29.1,27.9,00.0,37.8,31.0,15.0,0000.1,0012.74,0007.79,0007.28
2022-10-16 21:27:00,,0833.1,5.01,0.00,29.1,28.0,00.0,37.8,31.0,15.1,0000.0,0012.51,0007.77,0007.25
2022-10-16 21:28:00,,0833.0,5.00,0.00,29.1,28.0,00.0,37.8,31.0,14.9,0000.0,0012.42,0007.73,0007.22
2022-10-16 21:29:00,,0833.1,5.00,0.00,29.2,28.0,00.0,37.8,31.0,15.0,0000.0,0012.05,0007.73,0007.22
2022-10-16 21:30:00,,0833.1,5.00,0.00,29.2,28.1,00.0,37.9,31.1,14.9,0000.0,0011.88,0007.70,0007.22
2022-10-16 21:31:00,,0833.1,4.98,0.00,29.2,28.1,00.0,37.9,31.1,15.0,0000.0,0011.58,0007.68,0007.22
2022-10-16 21:32:00,,0833.1,5.00,0.00,29.2,28.2,00.0,37.9,31.1,14.9,-000.2,0011.04,0007.64,0007.20
2022-10-16 21:33:00,,0833.0,5.01,0.00,29.2,28.2,00.0,37.9,31.1,14.8,-000.0,0010.53,0007.60,0007.16
2022-10-16 21:34:00,,0833.0,5.00,0.00,29.3,28.2,00.0,37.9,31.2,14.7,-000.1,0010.51,0007.56,0007.12
2022-10-16 21:35:00,,0833.0,5.00,0.00,29.3,28.2,00.0,37.9,31.2,14.7,0000.2,0010.49,0007.54,0007.08
2022-10-16 21:36:00,,0833.0,5.00,0.00,29.3,28.1,00.0,38.0,31.2,14.5,0000.2,0010.81,0007.52,0007.05
2022-10-16 21:37:00,,0833.1,5.00,0.00,29.3,28.1,00.0,38.0,31.2,14.5,0000.2,0010.70,0007.48,0007.02
2022-10-16 21:38:00,,0833.0,5.00,0.00,29.3,28.2,00.0,38.0,31.2,14.5,0000.4,0011.03,0007.44,0006.99
2022-10-16 21:39:00,,0833.0,4.99,0.00,29.3,28.2,00.0,38.0,31.2,14.5,0001.1,0011.17,0007.40,0006.98
2022-10-16 21:40:00,,0833.0,5.00,0.00,29.3,28.2,00.0,38.0,31.2,14.4,0001.2,0011.32,0007.40,0006.95
2022-10-16 21:41:00,,0833.0,5.00,0.00,29.4,28.2,00.0,38.0,31.2,14.4,0000.8,0011.51,0007.42,0006.92
2022-10-16 21:42:00,,0833.1,5.00,0.00,29.4,28.3,00.0,38.0,31.2,14.3,0001.1,0011.57,0007.41,0006.88
2022-10-16 21:43:00,,0833.0,5.00,0.00,29.4,28.2,00.0,38.1,31.3,14.3,0001.0,0011.55,0007.38,0006.85
2022-10-16 21:44:00,,0833.1,5.00,0.00,29.4,28.2,00.0,38.1,31.3,14.3,0000.7,0011.59,0007.36,0006.83
2022-10-16 21:45:00,,0833.1,5.01,0.00,29.4,28.3,00.0,38.1,31.3,14.3,0000.8,0011.62,0007.35,0006.81
2022-10-16 21:46:00,,0833.0,5.01,0.00,29.4,28.3,00.0,38.1,31.3,14.3,0000.5,0011.86,0007.35,0006.78
2022-10-16 21:47:00,,0833.1,5.01,0.00,29.4,28.3,00.0,38.1,31.3,14.4,0000.7,0012.08,0007.31,0006.74
2022-10-16 21:48:00,,0833.1,5.01,0.00,29.5,28.3,00.0,38.1,31.3,14.5,0000.7,0011.94,0007.27,0006.71
2022-10-16 21:49:00,,0833.1,5.00,0.00,29.5,28.3,00.0,38.2,31.3,14.4,0000.5,0011.75,0007.32,0006.71
2022-10-16 21:50:00,,0833.1,5.00,0.00,29.5,28.3,00.0,38.2,31.4,14.3,0000.0,0012.19,0007.36,0006.71
2022-10-16 21:51:00,,0833.0,4.98,0.00,29.5,28.4,00.0,38.2,31.4,14.4,-000.2,0012.13,0007.33,0006.70
2022-10-16 21:52:00,,0833.1,5.01,0.00,29.5,28.4,00.0,38.2,31.4,14.4,-000.4,0012.07,0007.30,0006.71
2022-10-16 21:53:00,,0833.1,5.00,0.00,29.5,28.4,00.0,38.2,31.4,14.3,-000.5,0012.53,0007.31,0006.72
2022-10-16 21:54:00,,0833.0,5.00,0.00,29.5,28.4,00.0,38.2,31.4,14.2,-000.1,0012.62,0007.30,0006.72
2022-10-16 21:55:00,,0833.0,5.00,0.00,29.6,28.5,00.0,38.2,31.4,14.3,0000.3,0012.72,0007.31,0006.73
2022-10-16 21:56:00,,0833.0,5.00,0.00,29.6,28.5,00.0,38.3,31.4,14.4,0000.0,0012.92,0007.32,0006.73
2022-10-16 21:57:00,,0833.0,5.00,0.00,29.6,28.5,00.0,38.3,31.5,14.4,-000.0,0013.18,0007.30,0006.74
2022-10-16 21:58:00,,0833.1,5.00,0.00,29.6,28.5,00.0,38.3,31.5,14.3,-000.6,0012.49,0007.30,0006.75
2022-10-16 21:59:00,,0833.1,5.00,0.00,29.6,28.5,00.0,38.3,31.5,14.2,-000.7,0012.58,0007.34,0006.77
